Location: Antist
(43.1184°N, 0.1270°E)
Time: 22:24:15
(UTC+00:00)

STARLINK-1076 - Pass Details

Date: 19 January 2020
Orbit: 348 x 351 km, 53.0° (Epoch: 17 February)

Event Time Altitude Azimuth Distance (km) Brightness Sun altitude
Rises 18:14:06 0° 260° (W) 2,151 8.6 -14.4°
Reaches altitude 10° 18:16:17 10° 273° (W) 1,312 6.8 -14.8°
Maximum altitude 18:18:51 27° 335° (NNW) 711 4.3 -15.3°
Enters shadow 18:19:57 21° 13° (NNE) 856 4.4 -15.5°
